Regional Weather Roundup
Issued by NWS

Home | Current Version | Previous Version | Graphics & Text | Print | Product List | Glossary On
Versions: 1 2 3 4 5 6 7 8 9 10 11 12 13 14 15 16 17 18 19 20 21 22 23 24 25 26 27 28 29 30 31 32 33 34 35 36 37 38 39 40 41 42 43 44 45 46 47 48 49 50
000
ASUS43 KBIS 161110
RWRND

NORTH DAKOTA REGIONAL WEATHER ROUNDUP
NATIONAL WEATHER SERVICE BISMARCK ND
500 AM CST SAT DEC 16 2017

NOTE: "FAIR" INDICATES FEW OR NO CLOUDS BELOW 12,000 FEET WITH NO
SIGNIFICANT WEATHER AND/OR OBSTRUCTIONS TO VISIBILITY.


NDZ001>003-009>011-017-161200-
NORTHWEST NORTH DAKOTA

CITY           SKY/WX    TMP DP  RH WIND       PRES   REMARKS
WILLISTON      MOCLDY    32  27  80 NW10      29.78R
MINOT          PTCLDY    36  30  79 W15       29.69S
MINOT AFB      PTCLDY    33  29  87 NW13      29.69R
$$

NDZ018>021-031>035-040>046-161200-
SOUTHWEST NORTH DAKOTA

CITY           SKY/WX    TMP DP  RH WIND       PRES   REMARKS
BISMARCK       CLOUDY    38  35  89 NW10      29.73R
DICKINSON      CLEAR     31  30  96 NW14      29.74R
GARRISON         N/A     35  32  88 NW14      29.72R
HETTINGER ARPT CLOUDY    33  29  85 W7        29.79R
$$

NDZ004>008-012>016-024-026-027-054-161200-
NORTHEAST NORTH DAKOTA

CITY           SKY/WX    TMP DP  RH WIND       PRES   REMARKS
GRAND FORKS    CLOUDY    21  19  92 SE6       29.72R WCI  13
GRND FRKS AFB  CLOUDY    20  17  88 E5        29.72R WCI  13
DEVILS LAKE    CLOUDY    23  22  96 S5        29.68R WCI  17
$$

NDZ022-023-025-028>030-036>039-047>053-161200-
SOUTHEAST NORTH DAKOTA

CITY           SKY/WX    TMP DP  RH WIND       PRES   REMARKS
FARGO          CLOUDY    26  23  88 NE3       29.69R
JAMESTOWN      CLOUDY    33  32  96 N5        29.66R
$$




USA.gov is the U.S. government's official web portal to all federal, state and local government web resources and services.